Flag for U.S.A. Weather past 2 weeks in Los Angeles, California, U.S.A.

Now
69 °F

Passing clouds.


Feels Like: 69 °F
Forecast: 66 / 81 °F
Wind: No wind

Location: Los Angeles / USC Campus Downtown

Current Time: Sep 2, 2014 at 10:09:42 PM

Latest Report: Sep 2, 2014 at 8:47 PM


Visibility: 10 mi

Pressure: 29.78 "Hg

Humidity: 84%

Dew point: 64 °F

Location of Los AngelesLocation

Historic Weather in Los Angeles — Graph

°F

Los Angeles temperature yesterday

Maximum temperature yesterday: 85 °F (at 12:47 PM)
Minimum temperature yesterday: 71 °F (at 2:04 AM)
Average temperature yesterday: 76 °F

Past Weeks' High & Low Weather Summary

 TemperatureHumidityPressure
High91 °F (Aug 27, 1:47 PM)87% (Aug 22, 4:47 AM)30.01 "Hg (Aug 22, 4:47 AM)
Low64 °F (Aug 25, 6:47 AM)22% (Aug 28, 7:47 PM)29.72 "Hg (Aug 30, 5:47 PM)
Average74 °F65%29.87 "Hg
* Reported Aug 18 8:47 PM — Sep 2 8:47 PM, Los Angeles, Weather by CustomWeather, © 2014

Note: Actual official high and low records may vary slightly from our data, if they occured in-between our weather recording intervals... More about our weather records

Advertising

Los Angeles weather history for previous 24 hours

 ConditionsComfort  
Time TempWeatherWind HumidityBarometerVisibility
8:47 PM
Sep 2
69 °FPassing clouds.No wind84%29.78 "Hg10 mi
7:47 PM71 °FSunny.3 mph76%29.77 "Hg10 mi
6:47 PM73 °FSunny.3 mph74%29.76 "Hg10 mi
5:47 PM76 °FSunny.6 mph67%29.76 "Hg10 mi
4:47 PM78 °FSunny.6 mph62%29.76 "Hg10 mi
3:47 PM80 °FSunny.6 mph56%29.75 "Hg10 mi
2:47 PM82 °FSunny.6 mph53%29.78 "Hg10 mi
1:47 PM82 °FSunny.3 mph53%29.79 "Hg10 mi
12:47 PM82 °FSunny.5 mph53%29.80 "Hg10 mi
11:47 AM82 °FSunny.3 mph49%29.81 "Hg10 mi
10:47 AM80 °FSunny.3 mph54%29.83 "Hg10 mi
9:47 AM78 °FSunny.No wind58%29.83 "Hg9 mi
8:47 AM74 °FPassing clouds.No wind64%29.84 "Hg9 mi
7:47 AM71 °FOvercast.No wind71%29.85 "Hg9 mi
6:47 AM70 °FOvercast.No wind73%29.85 "Hg10 mi
5:47 AM70 °FOvercast.3 mph76%29.84 "Hg10 mi
4:47 AM70 °FOvercast.No wind76%29.83 "Hg10 mi
3:47 AM70 °FOvercast.No wind76%29.83 "Hg10 mi
2:47 AM69 °FPassing clouds.5 mph79%29.83 "Hg10 mi
1:47 AM69 °FClear.3 mph81%29.82 "Hg10 mi
12:47 AM70 °FClear.3 mph76%29.81 "Hg10 mi
11:47 PM
Sep 1
71 °FClear.No wind71%29.81 "Hg10 mi
10:47 PM72 °FClear.No wind76%29.81 "Hg10 mi
Weather by CustomWeather, © 2014

See weather overviewHow to use our weather pages